sat.trackr.live / text

‹ back to catalog

TELSTAR 14R

NORAD 37602 · 2011-021A

PAYLOAD ACTIVE UNKNOWN

§ Identity

Operator
Country
CA
Launch date
2011-05-20
Launch site
TYMSC
Launch vehicle
Mass (kg)
RCS (m²)
12.59

Purposes: comms

External: N2YO · Heavens-Above · Gunter

§ Orbital elements

Epoch: 2026-07-31T15:21:21.637728Z

Period
1,454.79 min
Inclination
0.1225°
Eccentricity
0.0007422
Mean motion
0.98983414 rev/d
Perigee alt
36,120.1 km
Apogee alt
36,183.2 km
Semi-major
42,529.8 km
B*
0.0000e+0
RAAN
85.4881°
Arg perigee
292.7434°
Mean anomaly
21.5788°
Rev number
5,627

§ Raw data

TELSTAR 14R1 37602U 11021A   26212.63983377  .00000053  00000+0  00000+0 0  99982 37602   0.1225  85.4881 0007422 292.7434  21.5788  0.98983414 56277

JSON: /api/v1/satellites/37602 · /tle

For live sub-satellite position, see the globe view (requires WebGL).

§ Visibility from observer

Set your observer location to see the next 7 days of passes ≥ 10°. The values pass through the URL so the page stays shareable.

No JS? Fill the form by hand. The geolocation button needs JavaScript.